Location: Krasnoyarskiy Pitomnik
(51.1333°N, 71.6167°E)
Time: 10:23:58
(UTC+00:00)

Cosmos 1821 Rocket - Pass Details

Date: 22 October 2021
Orbit: 944 x 1005 km, 82.9° (Epoch: 06 December)

Event Time Altitude Azimuth Distance (km) Brightness Sun altitude
Rises 12:55:58 0° 182° (S) 3,721 7.2 -8.4°
Reaches altitude 10° 12:58:30 10° 181° (S) 2,774 6.5 -8.8°
Maximum altitude 13:04:52 77° 96° (E) 1,031 4.0 -9.8°
Drops below altitude 10° 13:11:14 10° 12° (NNE) 2,768 6.2 -10.8°
Sets 13:13:45 0° 12° (NNE) 3,713 6.9 -11.2°
